START_TIME,STEP,MOV.,EG07,t_acc.,EG08,t_acc.,EG09,t_acc.,EB05,t_acc.,EBP05,t_acc.
1980-11-13 21:00:11.390 ,7,0,0.,1.2,0.,1.2,0.,1.2,,0.0,,0.0
1980-11-13 21:00:12.590 ,7,0,0.,1.2,0.,1.2,0.,1.2,,0.0,,0.0
1980-11-13 21:00:13.790 ,7,0,0.,1.2,0.,1.2,0.,1.2,,0.0,,0.0
1980-11-13 21:00:14.990 ,7,0,0.,1.2,0.,1.2,0.,1.2,,0.0,,0.0
1980-11-13 21:00:16.190 ,7,0,0.,1.2,0.,1.2,0.,1.2,,0.0,,0.0
1980-11-13 21:00:17.390 ,7,0,0.,1.2,0.,1.2,0.,1.2,,0.0,,0.0
1980-11-13 21:00:18.590 ,7,0,0.,1.2,0.,1.2,0.,1.2,,0.0,,0.0
1980-11-13 21:00:19.790 ,7,0,0.,1.2,0.,1.2,0.,1.2,,0.0,,0.0
1980-11-13 21:00:20.990 ,7,0,0.,1.2,0.,1.2,0.,1.2,,0.0,,0.0
1980-11-13 21:00:22.190 ,7,0,0.,1.2,0.,1.2,0.,1.2,,0.0,,0.0
1980-11-13 21:00:23.390 ,7,0,0.,1.2,0.,1.2,0.,1.2,,0.0,,0.0
1980-11-13 21:00:24.590 ,7,0,0.,1.2,0.,1.2,0.,1.2,,0.0,,0.0
1980-11-13 21:00:25.790 ,7,0,0.,1.2,0.,1.2,0.,1.2,,0.0,,0.0
1980-11-13 21:00:26.990 ,7,0,0.,1.2,0.,1.2,0.,1.2,,0.0,,0.0
1980-11-13 21:00:28.190 ,7,0,0.,1.2,0.,1.2,0.,1.2,,0.0,,0.0
1980-11-13 21:00:29.390 ,7,0,0.,1.2,0.,1.2,0.,1.2,,0.0,,0.0
1980-11-13 21:00:30.590 ,7,0,0.,1.2,0.,1.2,0.,1.2,,0.0,,0.0
1980-11-13 21:00:31.790 ,7,0,0.,1.2,0.,1.2,0.,1.2,,0.0,,0.0
1980-11-13 21:00:32.990 ,7,0,0.,1.2,0.,1.2,0.,1.2,,0.0,,0.0
1980-11-13 21:00:34.190 ,7,0,0.,1.2,0.,1.2,0.,1.2,,0.0,,0.0
1980-11-13 21:00:35.390 ,7,0,0.,1.2,0.,1.2,0.,1.2,,0.0,,0.0
1980-11-13 21:00:36.590 ,7,0,0.,1.2,0.,1.2,0.,1.2,,0.0,,0.0
1980-11-13 21:00:37.790 ,7,0,0.,1.2,0.,1.2,0.,1.2,,0.0,,0.0
1980-11-13 21:00:38.990 ,7,0,0.,1.2,0.,1.2,0.,1.2,,0.0,,0.0
1980-11-13 21:00:40.190 ,7,0,0.,1.2,0.,1.2,0.,1.2,,0.0,,0.0
1980-11-13 21:00:41.390 ,7,0,0.,1.2,0.,1.2,0.,1.2,,0.0,,0.0
1980-11-13 21:00:42.590 ,7,0,0.,1.2,0.,1.2,0.,1.2,,0.0,,0.0
1980-11-13 21:00:43.790 ,7,0,0.,1.2,0.,1.2,0.,1.2,,0.0,,0.0
1980-11-13 21:00:44.990 ,7,0,0.,1.2,0.,1.2,0.,1.2,,0.0,,0.0
1980-11-13 21:00:46.190 ,7,0,0.,1.2,0.,1.2,0.,1.2,,0.0,,0.0
1980-11-13 21:00:47.390 ,7,0,0.,1.2,0.,1.2,0.,1.2,,0.0,,0.0
1980-11-13 21:00:48.590 ,7,0,0.,1.2,0.,1.2,0.,1.2,,0.0,,0.0
1980-11-13 21:00:49.790 ,7,0,0.,1.2,0.,1.2,0.,1.2,,0.0,,0.0
1980-11-13 21:00:50.990 ,7,0,0.,1.2,0.,1.2,0.,1.2,,0.0,,0.0
1980-11-13 21:00:52.190 ,7,0,0.,1.2,0.,1.2,0.,1.2,,0.0,,0.0
1980-11-13 21:00:53.390 ,7,0,0.,1.2,0.,1.2,0.,1.2,,0.0,,0.0
1980-11-13 21:00:54.590 ,7,0,0.,1.2,0.,1.2,0.,1.2,,0.0,,0.0
1980-11-13 21:00:55.790 ,7,0,0.,1.2,0.,1.2,0.,1.2,,0.0,,0.0
1980-11-13 21:00:56.990 ,7,0,0.,1.2,0.,1.2,0.,1.2,,0.0,,0.0
1980-11-13 21:00:58.190 ,7,0,0.,1.2,0.,1.2,0.,1.2,,0.0,,0.0
1980-11-13 21:00:59.390 ,7,0,0.,1.2,0.,1.2,0.,1.2,,0.0,,0.0
1980-11-13 21:01:00.590 ,7,0,0.,1.2,0.,1.2,0.,1.2,,0.0,,0.0
1980-11-13 21:01:01.790 ,7,0,0.,1.2,0.,1.2,0.,1.2,,0.0,,0.0
1980-11-13 21:01:02.990 ,7,0,0.,1.2,0.,1.2,0.,1.2,,0.0,,0.0
1980-11-13 21:01:04.190 ,7,0,0.,1.2,0.,1.2,0.,1.2,,0.0,,0.0
1980-11-13 21:01:05.390 ,7,0,0.,1.2,0.,1.2,0.,1.2,,0.0,,0.0
1980-11-13 21:01:06.590 ,7,0,0.,1.2,0.,1.2,0.,1.2,,0.0,,0.0
1980-11-13 21:01:07.790 ,7,0,0.,1.2,0.,1.2,0.,1.2,,0.0,,0.0
1980-11-13 21:01:08.990 ,7,0,0.,1.2,0.,1.2,0.,1.2,,0.0,,0.0
1980-11-13 21:01:10.190 ,7,0,0.,1.2,0.,1.2,0.,1.2,,0.0,,0.0
1980-11-13 21:01:11.390 ,7,0,0.,1.2,0.,1.2,0.,1.2,,0.0,,0.0
1980-11-13 21:01:12.590 ,7,0,0.,1.2,0.,1.2,0.,1.2,,0.0,,0.0
1980-11-13 21:01:13.790 ,7,0,0.,1.2,0.,1.2,0.,1.2,,0.0,,0.0
1980-11-13 21:01:14.990 ,7,0,0.,1.2,0.,1.2,0.,1.2,,0.0,,0.0
1980-11-13 21:01:16.190 ,7,0,0.,1.2,0.,1.2,0.,1.2,,0.0,,0.0
1980-11-13 21:01:17.390 ,7,0,0.,1.2,0.,1.2,0.,1.2,,0.0,,0.0
1980-11-13 21:01:18.590 ,7,0,0.,1.2,0.,1.2,0.,1.2,,0.0,,0.0
1980-11-13 21:01:19.790 ,7,0,0.,1.2,0.,1.2,0.,1.2,,0.0,,0.0
1980-11-13 21:01:20.990 ,7,0,0.,1.2,0.,1.2,0.,1.2,,0.0,,0.0
1980-11-13 21:01:22.190 ,7,0,0.,1.2,0.,1.2,0.,1.2,,0.0,,0.0
1980-11-13 21:01:23.390 ,6,0,0.,1.2,0.,1.2,0.,1.2,,0.0,,0.0
1980-11-13 21:01:24.590 ,6,0,0.,1.2,0.,1.2,0.,1.2,,0.0,,0.0
1980-11-13 21:01:25.790 ,6,0,0.,1.2,0.,1.2,0.,1.2,,0.0,,0.0
1980-11-13 21:01:26.990 ,6,0,0.,1.2,0.,1.2,0.,1.2,,0.0,,0.0
1980-11-13 21:01:28.190 ,6,0,0.,1.2,0.,1.2,0.,1.2,,0.0,,0.0
1980-11-13 21:01:29.390 ,6,0,0.,1.2,0.,1.2,0.,1.2,,0.0,,0.0
1980-11-13 21:01:30.590 ,6,0,0.,1.2,0.,1.2,0.,1.2,,0.0,,0.0
1980-11-13 21:01:31.790 ,6,0,0.,1.2,0.,1.2,0.,1.2,,0.0,,0.0
1980-11-13 21:01:32.990 ,6,0,0.,1.2,0.,1.2,0.,1.2,,0.0,,0.0
1980-11-13 21:01:34.190 ,6,0,0.,1.2,0.,1.2,0.,1.2,,0.0,,0.0
1980-11-13 21:01:35.390 ,6,0,0.,1.2,0.,1.2,0.,1.2,,0.0,,0.0
1980-11-13 21:01:36.590 ,6,0,0.,1.2,0.,1.2,0.,1.2,,0.0,,0.0
1980-11-13 21:01:37.790 ,6,0,0.,1.2,0.,1.2,0.,1.2,,0.0,,0.0
1980-11-13 21:01:38.990 ,6,0,0.,1.2,0.,1.2,0.,1.2,,0.0,,0.0
1980-11-13 21:01:40.190 ,6,0,0.,1.2,0.,1.2,0.,1.2,,0.0,,0.0
1980-11-13 21:01:41.390 ,6,0,0.,1.2,0.,1.2,0.,1.2,,0.0,,0.0
1980-11-13 21:01:42.590 ,6,0,0.,1.2,0.,1.2,0.,1.2,,0.0,,0.0
1980-11-13 21:01:43.790 ,6,0,0.,1.2,0.,1.2,0.,1.2,,0.0,,0.0
1980-11-13 21:01:44.990 ,6,0,0.,1.2,0.,1.2,0.,1.2,,0.0,,0.0
1980-11-13 21:01:46.190 ,6,0,0.,1.2,0.,1.2,0.,1.2,,0.0,,0.0
1980-11-13 21:01:47.390 ,6,0,0.,1.2,0.,1.2,0.,1.2,,0.0,,0.0
1980-11-13 21:01:48.590 ,6,0,0.,1.2,0.,1.2,0.,1.2,,0.0,,0.0
1980-11-13 21:01:49.790 ,6,0,0.,1.2,0.,1.2,0.,1.2,,0.0,,0.0
1980-11-13 21:01:50.990 ,6,0,0.,1.2,0.,1.2,0.,1.2,,0.0,,0.0
1980-11-13 21:01:52.190 ,6,0,0.,1.2,0.,1.2,0.,1.2,,0.0,,0.0
1980-11-13 21:01:53.390 ,6,0,0.,1.2,0.,1.2,0.,1.2,,0.0,,0.0
1980-11-13 21:01:54.590 ,6,0,0.,1.2,0.,1.2,0.,1.2,,0.0,,0.0
1980-11-13 21:01:55.790 ,6,0,0.,1.2,0.,1.2,0.,1.2,,0.0,,0.0
1980-11-13 21:01:56.990 ,6,0,0.,1.2,0.,1.2,0.,1.2,,0.0,,0.0
1980-11-13 21:01:58.190 ,6,0,0.,1.2,0.,1.2,0.,1.2,,0.0,,0.0
1980-11-13 21:01:59.390 ,6,0,0.,1.2,0.,1.2,0.,1.2,,0.0,,0.0
1980-11-13 21:02:00.590 ,6,0,0.,1.2,0.,1.2,0.,1.2,,0.0,,0.0
1980-11-13 21:02:01.790 ,6,0,0.,1.2,0.,1.2,0.,1.2,,0.0,,0.0
1980-11-13 21:02:02.990 ,6,0,0.,1.2,0.,1.2,0.,1.2,,0.0,,0.0
1980-11-13 21:02:04.190 ,6,0,0.,1.2,0.,1.2,0.,1.2,,0.0,,0.0
1980-11-13 21:02:05.390 ,6,0,0.,1.2,0.,1.2,0.,1.2,,0.0,,0.0
1980-11-13 21:02:06.590 ,6,0,0.,1.2,0.,1.2,0.,1.2,,0.0,,0.0
1980-11-13 21:02:07.790 ,6,0,0.,1.2,0.,1.2,0.,1.2,,0.0,,0.0
1980-11-13 21:02:08.990 ,6,0,0.,1.2,0.,1.2,0.,1.2,,0.0,,0.0
1980-11-13 21:02:10.190 ,6,0,0.,1.2,0.,1.2,0.,1.2,,0.0,,0.0
1980-11-13 21:02:11.390 ,5,0,0.,1.2,0.,1.2,0.,1.2,,0.0,,0.0
1980-11-13 21:02:12.590 ,5,0,0.,1.2,0.,1.2,0.,1.2,,0.0,,0.0
1980-11-13 21:02:13.790 ,5,0,0.,1.2,0.,1.2,0.,1.2,,0.0,,0.0
1980-11-13 21:02:14.990 ,5,0,0.,1.2,0.,1.2,0.,1.2,,0.0,,0.0
1980-11-13 21:02:16.190 ,5,0,0.,1.2,0.,1.2,0.,1.2,,0.0,,0.0
1980-11-13 21:02:17.390 ,5,0,0.,1.2,0.,1.2,0.,1.2,,0.0,,0.0
1980-11-13 21:02:18.590 ,5,0,0.,1.2,0.,1.2,0.,1.2,,0.0,,0.0
1980-11-13 21:02:19.790 ,5,0,0.,1.2,0.,1.2,0.,1.2,,0.0,,0.0
1980-11-13 21:02:20.990 ,5,0,0.,1.2,0.,1.2,0.,1.2,,0.0,,0.0
1980-11-13 21:02:22.190 ,5,0,0.,1.2,0.,1.2,0.,1.2,,0.0,,0.0
1980-11-13 21:02:23.390 ,5,0,0.,1.2,0.,1.2,0.,1.2,,0.0,,0.0
1980-11-13 21:02:24.590 ,5,0,0.,1.2,0.,1.2,0.,1.2,,0.0,,0.0
1980-11-13 21:02:25.790 ,5,0,0.,1.2,0.,1.2,0.,1.2,,0.0,,0.0
1980-11-13 21:02:26.990 ,5,0,0.,1.2,0.,1.2,0.,1.2,,0.0,,0.0
1980-11-13 21:02:28.190 ,5,0,0.,1.2,0.,1.2,0.,1.2,,0.0,,0.0
1980-11-13 21:02:29.390 ,5,0,0.,1.2,0.,1.2,0.,1.2,,0.0,,0.0
1980-11-13 21:02:30.590 ,5,0,0.,1.2,0.,1.2,0.,1.2,,0.0,,0.0
1980-11-13 21:02:31.790 ,5,0,0.,1.2,0.,1.2,0.,1.2,,0.0,,0.0
1980-11-13 21:02:32.990 ,5,0,0.,1.2,0.,1.2,0.,1.2,,0.0,,0.0
1980-11-13 21:02:34.190 ,5,0,0.,1.2,0.,1.2,0.,1.2,,0.0,,0.0
1980-11-13 21:02:35.390 ,5,0,0.,1.2,0.,1.2,0.,1.2,,0.0,,0.0
1980-11-13 21:02:36.590 ,5,0,0.,1.2,0.,1.2,0.,1.2,,0.0,,0.0
1980-11-13 21:02:37.790 ,5,0,0.,1.2,0.,1.2,0.,1.2,,0.0,,0.0
1980-11-13 21:02:38.990 ,5,0,0.,1.2,0.,1.2,0.,1.2,,0.0,,0.0
1980-11-13 21:02:40.190 ,5,0,0.,1.2,0.,1.2,0.,1.2,,0.0,,0.0
1980-11-13 21:02:41.390 ,5,0,0.,1.2,0.,1.2,0.,1.2,,0.0,,0.0
1980-11-13 21:02:42.590 ,5,0,0.,1.2,0.,1.2,0.,1.2,,0.0,,0.0
1980-11-13 21:02:43.790 ,5,0,0.,1.2,0.,1.2,0.,1.2,,0.0,,0.0
1980-11-13 21:02:44.990 ,5,0,0.,1.2,0.,1.2,0.,1.2,,0.0,,0.0
1980-11-13 21:02:46.190 ,5,0,0.,1.2,0.,1.2,0.,1.2,,0.0,,0.0
1980-11-13 21:02:47.390 ,5,0,0.,1.2,0.,1.2,0.,1.2,,0.0,,0.0
1980-11-13 21:02:48.590 ,5,0,0.,1.2,0.,1.2,0.,1.2,,0.0,,0.0
1980-11-13 21:02:49.790 ,5,0,0.,1.2,0.,1.2,0.,1.2,,0.0,,0.0
1980-11-13 21:02:50.990 ,5,0,0.,1.2,0.,1.2,0.,1.2,,0.0,,0.0
1980-11-13 21:02:52.190 ,5,0,0.,1.2,0.,1.2,0.,1.2,,0.0,,0.0
1980-11-13 21:02:53.390 ,5,0,0.,1.2,0.,1.2,0.,1.2,,0.0,,0.0
1980-11-13 21:02:54.590 ,5,0,0.,1.2,0.,1.2,0.,1.2,,0.0,,0.0
1980-11-13 21:02:55.790 ,5,0,0.,1.2,0.,1.2,0.,1.2,,0.0,,0.0
1980-11-13 21:02:56.990 ,5,0,0.,1.2,0.,1.2,0.,1.2,,0.0,,0.0
1980-11-13 21:02:58.190 ,5,0,0.,1.2,0.,1.2,0.,1.2,,0.0,,0.0
1980-11-13 21:02:59.390 ,4,0,0.,1.2,0.,1.2,0.,1.2,,0.0,,0.0
1980-11-13 21:03:00.590 ,4,0,0.,1.2,0.,1.2,0.,1.2,,0.0,,0.0
1980-11-13 21:03:01.790 ,4,0,0.,1.2,0.,1.2,0.,1.2,,0.0,,0.0
1980-11-13 21:03:02.990 ,4,0,0.,1.2,0.,1.2,0.,1.2,,0.0,,0.0
1980-11-13 21:03:04.190 ,4,0,0.,1.2,0.,1.2,0.,1.2,,0.0,,0.0
1980-11-13 21:03:05.390 ,4,0,0.,1.2,0.,1.2,0.,1.2,,0.0,,0.0
1980-11-13 21:03:06.590 ,4,0,0.,1.2,0.,1.2,0.,1.2,,0.0,,0.0
1980-11-13 21:03:07.790 ,4,0,0.,1.2,0.,1.2,0.,1.2,,0.0,,0.0
1980-11-13 21:03:08.990 ,4,0,0.,1.2,0.,1.2,0.,1.2,,0.0,,0.0
1980-11-13 21:03:10.190 ,4,0,0.,1.2,0.,1.2,0.,1.2,,0.0,,0.0
1980-11-13 21:03:11.390 ,4,0,0.,1.2,0.,1.2,0.,1.2,,0.0,,0.0
1980-11-13 21:03:12.590 ,4,0,0.,1.2,0.,1.2,0.,1.2,,0.0,,0.0
1980-11-13 21:03:13.790 ,4,0,0.,1.2,0.,1.2,0.,1.2,,0.0,,0.0
1980-11-13 21:03:14.990 ,4,0,0.,1.2,0.,1.2,0.,1.2,,0.0,,0.0
1980-11-13 21:03:16.190 ,4,0,0.,1.2,0.,1.2,0.,1.2,,0.0,,0.0
1980-11-13 21:03:17.390 ,4,0,0.,1.2,0.,1.2,0.,1.2,,0.0,,0.0
1980-11-13 21:03:18.590 ,4,0,0.,1.2,0.,1.2,0.,1.2,,0.0,,0.0
1980-11-13 21:03:19.790 ,4,0,0.,1.2,0.,1.2,0.,1.2,,0.0,,0.0
1980-11-13 21:03:20.990 ,4,0,0.,1.2,0.,1.2,0.,1.2,,0.0,,0.0
1980-11-13 21:03:22.190 ,4,0,0.,1.2,0.,1.2,0.,1.2,,0.0,,0.0
1980-11-13 21:03:23.390 ,4,0,0.,1.2,0.,1.2,0.,1.2,,0.0,,0.0
1980-11-13 21:03:24.590 ,4,0,0.,1.2,0.,1.2,0.,1.2,,0.0,,0.0
1980-11-13 21:03:25.790 ,4,0,0.,1.2,0.,1.2,0.,1.2,,0.0,,0.0
1980-11-13 21:03:26.990 ,4,0,0.,1.2,0.,1.2,0.,1.2,,0.0,,0.0
1980-11-13 21:03:28.190 ,4,0,0.,1.2,0.,1.2,0.,1.2,,0.0,,0.0
1980-11-13 21:03:29.390 ,4,0,0.,1.2,0.,1.2,0.,1.2,,0.0,,0.0
1980-11-13 21:03:30.590 ,4,0,0.,1.2,0.,1.2,0.,1.2,,0.0,,0.0
1980-11-13 21:03:31.790 ,4,0,0.,1.2,0.,1.2,0.,1.2,,0.0,,0.0
1980-11-13 21:03:32.990 ,4,0,0.,1.2,0.,1.2,0.,1.2,,0.0,,0.0
1980-11-13 21:03:34.190 ,4,0,0.,1.2,0.,1.2,0.,1.2,,0.0,,0.0
1980-11-13 21:03:35.390 ,4,0,0.,1.2,0.,1.2,0.,1.2,,0.0,,0.0
1980-11-13 21:03:36.590 ,4,0,0.,1.2,0.,1.2,0.,1.2,,0.0,,0.0
1980-11-13 21:03:37.790 ,4,0,0.,1.2,0.,1.2,0.,1.2,,0.0,,0.0
1980-11-13 21:03:38.990 ,4,0,0.,1.2,0.,1.2,0.,1.2,,0.0,,0.0
1980-11-13 21:03:40.190 ,4,0,0.,1.2,0.,1.2,0.,1.2,,0.0,,0.0
1980-11-13 21:03:41.390 ,4,0,0.,1.2,0.,1.2,0.,1.2,,0.0,,0.0
1980-11-13 21:03:42.590 ,4,0,0.,1.2,0.,1.2,0.,1.2,,0.0,,0.0
1980-11-13 21:03:43.790 ,4,0,0.,1.2,0.,1.2,0.,1.2,,0.0,,0.0
1980-11-13 21:03:44.990 ,4,0,0.,1.2,0.,1.2,0.,1.2,,0.0,,0.0
1980-11-13 21:03:46.190 ,4,0,0.,1.2,0.,1.2,0.,1.2,,0.0,,0.0
1980-11-13 21:03:47.390 ,3,0,0.,1.2,0.,1.2,0.,1.2,,0.0,,0.0
1980-11-13 21:03:48.590 ,3,0,0.,1.2,0.,1.2,0.,1.2,,0.0,,0.0
1980-11-13 21:03:49.790 ,3,0,0.,1.2,0.,1.2,0.,1.2,,0.0,,0.0
1980-11-13 21:03:50.990 ,3,0,0.,1.2,0.,1.2,0.,1.2,,0.0,,0.0
1980-11-13 21:03:52.190 ,3,0,0.,1.2,0.,1.2,0.,1.2,,0.0,,0.0
1980-11-13 21:03:53.390 ,3,0,0.,1.2,0.,1.2,0.,1.2,,0.0,,0.0
1980-11-13 21:03:54.590 ,3,0,0.,1.2,0.,1.2,0.,1.2,,0.0,,0.0
1980-11-13 21:03:55.790 ,3,0,0.,1.2,0.,1.2,0.,1.2,,0.0,,0.0
1980-11-13 21:03:56.990 ,3,0,0.,1.2,0.,1.2,0.,1.2,,0.0,,0.0
1980-11-13 21:03:58.190 ,3,0,0.,1.2,0.,1.2,0.,1.2,,0.0,,0.0
1980-11-13 21:03:59.390 ,3,0,0.,1.2,0.,1.2,0.,1.2,,0.0,,0.0
1980-11-13 21:04:00.590 ,3,0,0.,1.2,0.,1.2,0.,1.2,,0.0,,0.0
1980-11-13 21:04:01.790 ,3,0,0.,1.2,0.,1.2,0.,1.2,,0.0,,0.0
1980-11-13 21:04:02.990 ,3,0,0.,1.2,0.,1.2,0.,1.2,,0.0,,0.0
1980-11-13 21:04:04.190 ,3,0,0.,1.2,0.,1.2,0.,1.2,,0.0,,0.0
1980-11-13 21:04:05.390 ,3,0,0.,1.2,0.,1.2,0.,1.2,,0.0,,0.0
1980-11-13 21:04:06.590 ,3,0,0.,1.2,0.,1.2,0.,1.2,,0.0,,0.0
1980-11-13 21:04:07.790 ,3,0,0.,1.2,0.,1.2,0.,1.2,,0.0,,0.0
1980-11-13 21:04:08.990 ,3,0,0.,1.2,0.,1.2,0.,1.2,,0.0,,0.0
1980-11-13 21:04:10.190 ,3,0,0.,1.2,0.,1.2,0.,1.2,,0.0,,0.0
1980-11-13 21:04:11.390 ,3,0,0.,1.2,0.,1.2,0.,1.2,,0.0,,0.0
1980-11-13 21:04:12.590 ,3,0,0.,1.2,0.,1.2,0.,1.2,,0.0,,0.0
1980-11-13 21:04:13.790 ,3,0,0.,1.2,0.,1.2,0.,1.2,,0.0,,0.0
1980-11-13 21:04:14.990 ,3,0,0.,1.2,0.,1.2,0.,1.2,,0.0,,0.0
1980-11-13 21:04:16.190 ,3,0,0.,1.2,0.,1.2,0.,1.2,,0.0,,0.0
1980-11-13 21:04:17.390 ,3,0,0.,1.2,0.,1.2,0.,1.2,,0.0,,0.0
1980-11-13 21:04:18.590 ,3,0,0.,1.2,0.,1.2,0.,1.2,,0.0,,0.0
1980-11-13 21:04:19.790 ,3,0,0.,1.2,0.,1.2,0.,1.2,,0.0,,0.0
1980-11-13 21:04:20.990 ,3,0,0.,1.2,0.,1.2,0.,1.2,,0.0,,0.0
1980-11-13 21:04:22.190 ,3,0,0.,1.2,0.,1.2,0.,1.2,,0.0,,0.0
1980-11-13 21:04:23.390 ,3,0,0.,1.2,0.,1.2,0.,1.2,,0.0,,0.0
1980-11-13 21:04:24.590 ,3,0,0.,1.2,0.,1.2,0.,1.2,,0.0,,0.0
1980-11-13 21:04:25.790 ,3,0,0.,1.2,0.,1.2,0.,1.2,,0.0,,0.0
1980-11-13 21:04:26.990 ,3,0,0.,1.2,0.,1.2,0.,1.2,,0.0,,0.0
1980-11-13 21:04:28.190 ,3,0,0.,1.2,0.,1.2,0.,1.2,,0.0,,0.0
1980-11-13 21:04:29.390 ,3,0,0.,1.2,0.,1.2,0.,1.2,,0.0,,0.0
1980-11-13 21:04:30.590 ,3,0,0.,1.2,0.,1.2,0.,1.2,,0.0,,0.0
1980-11-13 21:04:31.790 ,3,0,0.,1.2,0.,1.2,0.,1.2,,0.0,,0.0
1980-11-13 21:04:32.990 ,3,0,0.,1.2,0.,1.2,0.,1.2,,0.0,,0.0
1980-11-13 21:04:34.190 ,3,0,0.,1.2,0.,1.2,0.,1.2,,0.0,,0.0
1980-11-13 21:04:35.390 ,2,0,0.,1.2,0.,1.2,0.,1.2,,0.0,,0.0
1980-11-13 21:04:36.590 ,2,0,0.,1.2,0.,1.2,0.,1.2,,0.0,,0.0
1980-11-13 21:04:37.790 ,2,0,0.,1.2,0.,1.2,0.,1.2,,0.0,,0.0
1980-11-13 21:04:38.990 ,2,0,0.,1.2,0.,1.2,0.,1.2,,0.0,,0.0
1980-11-13 21:04:40.190 ,2,0,0.,1.2,0.,1.2,0.,1.2,,0.0,,0.0
1980-11-13 21:04:41.390 ,2,0,0.,1.2,0.,1.2,0.,1.2,,0.0,,0.0
1980-11-13 21:04:42.590 ,2,0,0.,1.2,0.,1.2,0.,1.2,,0.0,,0.0
1980-11-13 21:04:43.790 ,2,0,0.,1.2,0.,1.2,0.,1.2,,0.0,,0.0
1980-11-13 21:04:44.990 ,2,0,0.,1.2,0.,1.2,0.,1.2,,0.0,,0.0
1980-11-13 21:04:46.190 ,2,0,0.,1.2,0.,1.2,0.,1.2,,0.0,,0.0
1980-11-13 21:04:47.390 ,2,0,0.,1.2,0.,1.2,0.,1.2,,0.0,,0.0
1980-11-13 21:04:48.590 ,2,0,0.,1.2,0.,1.2,0.,1.2,,0.0,,0.0
1980-11-13 21:04:49.790 ,2,0,0.,1.2,0.,1.2,0.,1.2,,0.0,,0.0
1980-11-13 21:04:50.990 ,2,0,0.,1.2,0.,1.2,0.,1.2,,0.0,,0.0
1980-11-13 21:04:52.190 ,2,0,0.,1.2,0.,1.2,0.,1.2,,0.0,,0.0
1980-11-13 21:04:53.390 ,2,0,0.,1.2,0.,1.2,0.,1.2,,0.0,,0.0
1980-11-13 21:04:54.590 ,2,0,0.,1.2,0.,1.2,0.,1.2,,0.0,,0.0
1980-11-13 21:04:55.790 ,2,0,0.,1.2,0.,1.2,0.,1.2,,0.0,,0.0
1980-11-13 21:04:56.990 ,2,0,0.,1.2,0.,1.2,0.,1.2,,0.0,,0.0
1980-11-13 21:04:58.190 ,2,0,0.,1.2,0.,1.2,0.,1.2,,0.0,,0.0
1980-11-13 21:04:59.390 ,2,0,0.,1.2,0.,1.2,0.,1.2,,0.0,,0.0
1980-11-13 21:05:00.590 ,2,0,0.,1.2,0.,1.2,0.,1.2,,0.0,,0.0
1980-11-13 21:05:01.790 ,2,0,0.,1.2,0.,1.2,0.,1.2,,0.0,,0.0
1980-11-13 21:05:02.990 ,2,0,0.,1.2,0.,1.2,0.,1.2,,0.0,,0.0
1980-11-13 21:05:04.190 ,2,0,0.,1.2,0.,1.2,0.,1.2,,0.0,,0.0
1980-11-13 21:05:05.390 ,2,0,0.,1.2,0.,1.2,0.,1.2,,0.0,,0.0
1980-11-13 21:05:06.590 ,2,0,0.,1.2,0.,1.2,0.,1.2,,0.0,,0.0
1980-11-13 21:05:07.790 ,2,0,0.,1.2,0.,1.2,0.,1.2,,0.0,,0.0
1980-11-13 21:05:08.990 ,2,0,0.,1.2,0.,1.2,0.,1.2,,0.0,,0.0
1980-11-13 21:05:10.190 ,2,0,0.,1.2,0.,1.2,0.,1.2,,0.0,,0.0
1980-11-13 21:05:11.390 ,2,0,0.,1.2,0.,1.2,0.,1.2,,0.0,,0.0
1980-11-13 21:05:12.590 ,2,0,0.,1.2,0.,1.2,0.,1.2,,0.0,,0.0
1980-11-13 21:05:13.790 ,2,0,0.,1.2,0.,1.2,0.,1.2,,0.0,,0.0
1980-11-13 21:05:14.990 ,2,0,0.,1.2,0.,1.2,0.,1.2,,0.0,,0.0
1980-11-13 21:05:16.190 ,2,0,0.,1.2,0.,1.2,0.,1.2,,0.0,,0.0
1980-11-13 21:05:17.390 ,2,0,0.,1.2,0.,1.2,0.,1.2,,0.0,,0.0
1980-11-13 21:05:18.590 ,2,0,0.,1.2,0.,1.2,0.,1.2,,0.0,,0.0
1980-11-13 21:05:19.790 ,2,0,0.,1.2,0.,1.2,0.,1.2,,0.0,,0.0
1980-11-13 21:05:20.990 ,2,0,0.,1.2,0.,1.2,0.,1.2,,0.0,,0.0
1980-11-13 21:05:22.190 ,2,0,0.,1.2,0.,1.2,0.,1.2,,0.0,,0.0
1980-11-13 21:05:23.390 ,1,0,0.,1.2,0.,1.2,0.,1.2,,0.0,,0.0
1980-11-13 21:05:24.590 ,1,0,0.,1.2,0.,1.2,0.,1.2,,0.0,,0.0
1980-11-13 21:05:25.790 ,1,0,0.,1.2,0.,1.2,0.,1.2,,0.0,,0.0
1980-11-13 21:05:26.990 ,1,0,0.,1.2,0.,1.2,0.,1.2,,0.0,,0.0
1980-11-13 21:05:28.190 ,1,0,0.,1.2,0.,1.2,0.,1.2,,0.0,,0.0
1980-11-13 21:05:29.390 ,1,0,,0,,0,,0,,0,,0
1980-11-13 21:05:30.590 ,1,0,,0,,0,,0,,0,,0
1980-11-13 21:05:31.790 ,1,0,,0,,0,,0,,0,,0
1980-11-13 21:05:32.990 ,1,0,,0,,0,,0,,0,,0
1980-11-13 21:05:34.190 ,1,0,,0,,0,,0,,0,,0
1980-11-13 21:05:35.390 ,1,0,,0,,0,,0,,0,,0
1980-11-13 21:05:36.590 ,1,0,0.,1.2,0.,1.2,0.,1.2,,0.0,,0.0
1980-11-13 21:05:37.790 ,1,0,0.,1.2,0.,1.2,0.,1.2,,0.0,,0.0
1980-11-13 21:05:38.990 ,1,0,0.,1.2,0.,1.2,0.,1.2,,0.0,,0.0
1980-11-13 21:05:40.190 ,1,0,0.,1.2,0.,1.2,0.,1.2,,0.0,,0.0
1980-11-13 21:05:41.390 ,1,0,0.,1.2,0.,1.2,0.,1.2,,0.0,,0.0
1980-11-13 21:05:42.590 ,1,0,0.,1.2,0.,1.2,0.,1.2,,0.0,,0.0
1980-11-13 21:05:43.790 ,1,0,0.,1.2,0.,1.2,0.,1.2,,0.0,,0.0
1980-11-13 21:05:44.990 ,1,0,0.,1.2,0.,1.2,0.,1.2,,0.0,,0.0
1980-11-13 21:05:46.190 ,1,0,0.,1.2,0.,1.2,0.,1.2,,0.0,,0.0
1980-11-13 21:05:47.390 ,0,0,0.,1.2,0.,1.2,0.,1.2,,0.0,,0.0
1980-11-13 21:05:48.590 ,0,0,0.,1.2,0.,1.2,0.,1.2,,0.0,,0.0
1980-11-13 21:05:49.790 ,0,0,0.,1.2,0.,1.2,0.,1.2,,0.0,,0.0
1980-11-13 21:05:50.990 ,0,0,0.,1.2,0.,1.2,0.,1.2,,0.0,,0.0
1980-11-13 21:05:52.190 ,0,0,0.,1.2,0.,1.2,0.,1.2,,0.0,,0.0
1980-11-13 21:05:53.390 ,0,0,0.,1.2,0.,1.2,0.,1.2,,0.0,,0.0
1980-11-13 21:05:54.590 ,0,0,0.,1.2,0.,1.2,0.,1.2,,0.0,,0.0
1980-11-13 21:05:55.790 ,0,0,0.,1.2,0.,1.2,0.,1.2,,0.0,,0.0
1980-11-13 21:05:56.990 ,0,0,0.,1.2,0.,1.2,0.,1.2,,0.0,,0.0
1980-11-13 21:05:58.190 ,0,0,0.,1.2,0.,1.2,0.,1.2,,0.0,,0.0
1980-11-13 21:05:59.390 ,0,0,0.,1.2,0.,1.2,0.,1.2,,0.0,,0.0
1980-11-13 21:06:00.590 ,0,0,0.,1.2,0.,1.2,0.,1.2,,0.0,,0.0
1980-11-13 21:06:01.790 ,0,0,0.,1.2,0.,1.2,0.,1.2,,0.0,,0.0
1980-11-13 21:06:02.990 ,0,0,0.,1.2,0.,1.2,0.,1.2,,0.0,,0.0
1980-11-13 21:06:04.190 ,0,0,0.,1.2,0.,1.2,0.,1.2,,0.0,,0.0
1980-11-13 21:06:05.390 ,0,0,0.,1.2,0.,1.2,0.,1.2,,0.0,,0.0
1980-11-13 21:06:06.590 ,0,0,0.,1.2,0.,1.2,0.,1.2,,0.0,,0.0
1980-11-13 21:06:07.790 ,0,0,0.,1.2,0.,1.2,0.,1.2,,0.0,,0.0
1980-11-13 21:06:08.990 ,0,0,0.,1.2,0.,1.2,0.,1.2,,0.0,,0.0
1980-11-13 21:06:10.190 ,0,0,0.,1.2,0.,1.2,0.,1.2,,0.0,,0.0
1980-11-13 21:07:14.990 ,0,0,,0,,0,,0,,0,,0
1980-11-13 21:07:16.190 ,0,0,,0,,0,,0,,0,,0
1980-11-13 21:07:17.390 ,0,0,,0,,0,,0,,0,,0
1980-11-13 21:07:18.590 ,0,0,,0,,0,,0,,0,,0
1980-11-13 21:07:19.790 ,0,0,,0,,0,,0,,0,,0
1980-11-13 21:07:20.990 ,0,0,,0,,0,,0,,0,,0
1980-11-13 21:07:22.190 ,0,0,,0,,0,,0,,0,,0
1980-11-13 21:07:23.390 ,0,0,,0,,0,,0,,0,,0
1980-11-13 21:07:24.590 ,0,0,,0,,0,,0,,0,,0
1980-11-13 21:07:25.790 ,0,0,,0,,0,,0,,0,,0
1980-11-13 21:07:26.990 ,0,0,,0,,0,,0,,0,,0
1980-11-13 21:07:28.190 ,0,0,,0,,0,,0,,0,,0
1980-11-13 21:07:29.390 ,0,0,,0,,0,,0,,0,,0
1980-11-13 21:07:30.590 ,0,0,0.,1.2,0.,1.2,0.,1.2,,0.0,,0.0
1980-11-13 21:07:31.790 ,0,0,0.,1.2,0.,1.2,0.,1.2,,0.0,,0.0
1980-11-13 21:07:32.990 ,0,0,0.,1.2,0.,1.2,0.,1.2,,0.0,,0.0
1980-11-13 21:07:34.190 ,0,0,0.,1.2,0.,1.2,0.,1.2,,0.0,,0.0
1980-11-13 21:07:35.390 ,0,0,0.,1.2,0.,1.2,0.,1.2,,0.0,,0.0
1980-11-13 21:07:36.590 ,0,0,0.,1.2,0.,1.2,0.,1.2,,0.0,,0.0
1980-11-13 21:07:37.790 ,0,0,0.,1.2,0.,1.2,0.,1.2,,0.0,,0.0
1980-11-13 21:07:23.390 ,0,0,0.,1.2,0.,1.2,0.,1.2,,0.0,,0.0
1980-11-13 21:07:24.590 ,0,0,0.,1.2,0.,1.2,0.,1.2,,0.0,,0.0
1980-11-13 21:07:25.790 ,0,0,0.,1.2,0.,1.2,0.,1.2,,0.0,,0.0
1980-11-13 21:07:26.990 ,0,0,0.,1.2,0.,1.2,0.,1.2,,0.0,,0.0
1980-11-13 21:07:28.190 ,0,0,0.,1.2,0.,1.2,0.,1.2,,0.0,,0.0
1980-11-13 21:07:29.390 ,0,0,0.,1.2,0.,1.2,0.,1.2,,0.0,,0.0
1980-11-13 21:07:30.590 ,0,0,0.,1.2,0.,1.2,0.,1.2,,0.0,,0.0
1980-11-13 21:07:31.790 ,0,0,0.,1.2,0.,1.2,0.,1.2,,0.0,,0.0
1980-11-13 21:07:32.990 ,0,0,0.,1.2,0.,1.2,0.,1.2,,0.0,,0.0
1980-11-13 21:07:34.190 ,0,0,0.,1.2,0.,1.2,0.,1.2,,0.0,,0.0
1980-11-13 21:07:35.390 ,0,0,0.,1.2,0.,1.2,0.,1.2,,0.0,,0.0
1980-11-13 21:07:36.590 ,0,0,0.,1.2,0.,1.2,0.,1.2,,0.0,,0.0
1980-11-13 21:07:37.790 ,0,0,0.,1.2,0.,1.2,0.,1.2,,0.0,,0.0
1980-11-13 21:07:38.990 ,0,0,0.,1.2,0.,1.2,0.,1.2,,0.0,,0.0
1980-11-13 21:07:40.190 ,0,0,0.,1.2,0.,1.2,0.,1.2,,0.0,,0.0
1980-11-13 21:07:41.390 ,0,0,0.,1.2,0.,1.2,0.,1.2,,0.0,,0.0
1980-11-13 21:07:42.590 ,0,0,0.,1.2,0.,1.2,0.,1.2,,0.0,,0.0
1980-11-13 21:07:43.790 ,0,0,0.,1.2,0.,1.2,0.,1.2,,0.0,,0.0
1980-11-13 21:07:44.990 ,0,0,0.,1.2,0.,1.2,0.,1.2,,0.0,,0.0
1980-11-13 21:07:46.190 ,0,0,0.,1.2,0.,1.2,0.,1.2,,0.0,,0.0
1980-11-13 21:07:47.390 ,1,0,0.,1.2,0.,1.2,0.,1.2,,0.0,,0.0
1980-11-13 21:07:48.590 ,1,0,0.,1.2,0.,1.2,0.,1.2,,0.0,,0.0
1980-11-13 21:07:49.790 ,1,0,0.,1.2,0.,1.2,0.,1.2,,0.0,,0.0
1980-11-13 21:07:50.990 ,1,0,0.,1.2,0.,1.2,0.,1.2,,0.0,,0.0
1980-11-13 21:07:52.190 ,1,0,0.,1.2,0.,1.2,0.,1.2,,0.0,,0.0
1980-11-13 21:07:53.390 ,1,0,0.,1.2,0.,1.2,0.,1.2,,0.0,,0.0
1980-11-13 21:07:54.590 ,1,0,0.,1.2,0.,1.2,0.,1.2,,0.0,,0.0
1980-11-13 21:07:55.790 ,1,0,0.,1.2,0.,1.2,0.,1.2,,0.0,,0.0
1980-11-13 21:07:56.990 ,1,0,0.,1.2,0.,1.2,0.,1.2,,0.0,,0.0
1980-11-13 21:07:58.190 ,1,0,0.,1.2,0.,1.2,0.,1.2,,0.0,,0.0
1980-11-13 21:07:59.390 ,1,0,0.,1.2,0.,1.2,0.,1.2,,0.0,,0.0
1980-11-13 21:08:00.590 ,1,0,0.,1.2,0.,1.2,0.,1.2,,0.0,,0.0
1980-11-13 21:08:01.790 ,1,0,0.,1.2,0.,1.2,0.,1.2,,0.0,,0.0
1980-11-13 21:08:02.990 ,1,0,0.,1.2,0.,1.2,0.,1.2,,0.0,,0.0
1980-11-13 21:08:04.190 ,1,0,0.,1.2,0.,1.2,0.,1.2,,0.0,,0.0
1980-11-13 21:08:05.390 ,1,0,0.,1.2,0.,1.2,0.,1.2,,0.0,,0.0
1980-11-13 21:08:06.590 ,1,0,0.,1.2,0.,1.2,0.,1.2,,0.0,,0.0
1980-11-13 21:08:07.790 ,1,0,0.,1.2,0.,1.2,0.,1.2,,0.0,,0.0
1980-11-13 21:08:08.990 ,1,0,0.,1.2,0.,1.2,0.,1.2,,0.0,,0.0
1980-11-13 21:08:10.190 ,1,0,0.,1.2,0.,1.2,0.,1.2,,0.0,,0.0
1980-11-13 21:08:11.390 ,1,0,0.,1.2,0.,1.2,0.,1.2,,0.0,,0.0
1980-11-13 21:08:12.590 ,1,0,0.,1.2,0.,1.2,0.,1.2,,0.0,,0.0
1980-11-13 21:08:13.790 ,1,0,0.,1.2,0.,1.2,0.,1.2,,0.0,,0.0
1980-11-13 21:08:14.990 ,1,0,0.,1.2,0.,1.2,0.,1.2,,0.0,,0.0
1980-11-13 21:08:16.190 ,1,0,0.,1.2,0.,1.2,0.,1.2,,0.0,,0.0
1980-11-13 21:08:17.390 ,1,0,0.,1.2,0.,1.2,0.,1.2,,0.0,,0.0
1980-11-13 21:08:18.590 ,1,0,0.,1.2,0.,1.2,0.,1.2,,0.0,,0.0
1980-11-13 21:08:19.790 ,1,0,0.,1.2,0.,1.2,0.,1.2,,0.0,,0.0
1980-11-13 21:08:20.990 ,1,0,0.,1.2,0.,1.2,0.,1.2,,0.0,,0.0
1980-11-13 21:08:22.190 ,1,0,0.,1.2,0.,1.2,0.,1.2,,0.0,,0.0
1980-11-13 21:08:23.390 ,1,0,0.,1.2,0.,1.2,0.,1.2,,0.0,,0.0
1980-11-13 21:08:24.590 ,1,0,0.,1.2,0.,1.2,0.,1.2,,0.0,,0.0
1980-11-13 21:08:25.790 ,1,0,0.,1.2,0.,1.2,0.,1.2,,0.0,,0.0
1980-11-13 21:08:26.990 ,1,0,0.,1.2,0.,1.2,0.,1.2,,0.0,,0.0
1980-11-13 21:08:28.190 ,1,0,0.,1.2,0.,1.2,0.,1.2,,0.0,,0.0
1980-11-13 21:08:29.390 ,1,0,0.,1.2,0.,1.2,0.,1.2,,0.0,,0.0
1980-11-13 21:08:30.590 ,1,0,0.,1.2,0.,1.2,0.,1.2,,0.0,,0.0
1980-11-13 21:08:31.790 ,1,0,0.,1.2,0.,1.2,0.,1.2,,0.0,,0.0
1980-11-13 21:08:32.990 ,1,0,0.,1.2,0.,1.2,0.,1.2,,0.0,,0.0
1980-11-13 21:08:34.190 ,1,0,0.,1.2,0.,1.2,0.,1.2,,0.0,,0.0
1980-11-13 21:08:35.390 ,2,0,0.,1.2,0.,1.2,0.,1.2,,0.0,,0.0
1980-11-13 21:08:36.590 ,2,0,0.,1.2,0.,1.2,0.,1.2,,0.0,,0.0
1980-11-13 21:08:37.790 ,2,0,0.,1.2,0.,1.2,0.,1.2,,0.0,,0.0
1980-11-13 21:08:38.990 ,2,0,0.,1.2,0.,1.2,0.,1.2,,0.0,,0.0
1980-11-13 21:08:40.190 ,2,0,0.,1.2,0.,1.2,0.,1.2,,0.0,,0.0
1980-11-13 21:08:41.390 ,2,0,0.,1.2,0.,1.2,0.,1.2,,0.0,,0.0
1980-11-13 21:08:42.590 ,2,0,0.,1.2,0.,1.2,0.,1.2,,0.0,,0.0
1980-11-13 21:08:43.790 ,2,0,0.,1.2,0.,1.2,0.,1.2,,0.0,,0.0
1980-11-13 21:08:44.990 ,2,0,0.,1.2,0.,1.2,0.,1.2,,0.0,,0.0
1980-11-13 21:08:46.190 ,2,0,0.,1.2,0.,1.2,0.,1.2,,0.0,,0.0
1980-11-13 21:08:47.390 ,2,0,0.,1.2,0.,1.2,0.,1.2,,0.0,,0.0
1980-11-13 21:08:48.590 ,2,0,0.,1.2,0.,1.2,0.,1.2,,0.0,,0.0
1980-11-13 21:08:49.790 ,2,0,0.,1.2,0.,1.2,0.,1.2,,0.0,,0.0
1980-11-13 21:08:50.990 ,2,0,0.,1.2,0.,1.2,0.,1.2,,0.0,,0.0
1980-11-13 21:08:52.190 ,2,0,0.,1.2,0.,1.2,0.,1.2,,0.0,,0.0
1980-11-13 21:08:53.390 ,2,0,0.,1.2,0.,1.2,0.,1.2,,0.0,,0.0
1980-11-13 21:08:54.590 ,2,0,0.,1.2,0.,1.2,0.,1.2,,0.0,,0.0